K8POS Weather Reports


Display with metric or nautical units.
time (UTC)temp
F
wind
direction
speed
MPH
gust
MPH
rain 1hr
in
rain 24hr
in
rain mn
in
humidity
%
barometer
mb
20260510154505 53 280 5.0 12.0 0.00 0.05 0.00 48 1016.9
20260510153006 52 265 5.0 12.0 0.00 0.05 0.00 51 1016.7
20260510151505 52 276 5.0 11.0 0.00 0.05 0.00 50 1016.6
20260510150010 51 283 5.0 11.0 0.00 0.05 0.00 53 1016.5
20260510144505 51 270 5.0 12.0 0.00 0.05 0.00 55 1016.4
20260510143007 50 274 6.0 12.0 0.00 0.05 0.00 57 1016.3
20260510141504 50 304 7.0 15.0 0.00 0.08 0.00 56 1016.1
20260510140008 50 281 4.0 11.0 0.00 0.08 0.00 57 1016.1
20260510131504 48 302 4.0 9.0 0.00 0.08 0.00 58 1015.6
20260510130008 47 293 3.0 9.0 0.00 0.08 0.00 61 1015.6
20260510124504 46 296 3.0 7.0 0.00 0.08 0.00 66 1015.4
20260510123008 45 300 1.0 7.0 0.00 0.08 0.00 71 1015.2
20260510121504 44 288 2.0 7.0 0.00 0.08 0.00 73 1015.0
20260510120007 43 317 1.0 4.0 0.00 0.08 0.00 78 1015.1
20260510113007 41 318 0.0 2.0 0.00 0.08 0.00 82 1014.8
20260510111505 40 0 0.0 0.0 0.00 0.08 0.00 83 1014.5
20260510104505 38 0 0.0 0.0 0.00 0.08 0.00 84 1014.1
20260510103008 38 0 0.0 0.0 0.00 0.08 0.00 84 1013.9
20260510101504 39 318 0.0 2.0 0.00 0.08 0.00 84 1013.6
20260510094505 39 319 0.0 3.0 0.00 0.08 0.00 84 1013.3
20260510093007 39 319 2.0 3.0 0.00 0.08 0.00 84 1012.9
20260510091505 38 15 1.0 4.0 0.00 0.08 0.00 85 1012.8
20260510084505 38 31 0.0 1.0 0.00 0.09 0.00 85 1012.2
20260510083008 38 31 0.0 2.0 0.00 0.09 0.00 85 1011.9
20260510081505 38 0 0.0 0.0 0.00 0.09 0.00 85 1011.8
20260510080007 38 0 0.0 0.0 0.00 0.09 0.00 85 1011.6
20260510074505 38 0 0.0 0.0 0.00 0.09 0.00 85 1011.5
20260510073007 39 0 0.0 0.0 0.00 0.09 0.00 85 1011.3
20260510071505 40 0 0.0 0.0 0.00 0.09 0.00 85 1011.2
20260510070008 40 0 0.0 0.0 0.00 0.09 0.00 84 1010.9
20260510064505 41 0 0.0 0.0 0.00 0.09 0.00 82 1010.8
20260510063007 42 0 0.0 0.0 0.00 0.09 0.00 81 1010.6
20260510061505 43 31 0.0 2.0 0.00 0.09 0.00 79 1010.4
20260510060008 43 32 1.0 3.0 0.00 0.09 0.00 78 1010.4
20260510054505 44 33 1.0 4.0 0.00 0.09 0.00 77 1010.3
20260510053008 45 30 2.0 8.0 0.00 0.09 0.00 75 1010.1
20260510051504 46 30 4.0 6.0 0.00 0.09 0.00 73 1010.0
20260510050007 46 350 1.0 9.0 0.00 0.09 0.00 72 1009.6
20260510044504 47 0 0.0 0.0 0.00 0.09 0.00 69 1009.2
20260510043011 48 0 0.0 0.0 0.00 0.09 0.00 68 1008.9
20260510041505 48 0 0.0 0.0 0.00 0.09 0.00 67 1008.7
20260510040030 50 297 2.0 4.0 0.00 0.09 0.00 66 1008.4
20260510033007 51 299 3.0 8.0 0.00 0.09 0.09 63 1008.1
20260510031505 52 300 4.0 10.0 0.00 0.09 0.09 63 1008.0
20260510030007 52 300 3.0 8.0 0.00 0.09 0.09 64 1007.9
20260510023007 53 304 3.0 7.0 0.00 0.09 0.09 64 1007.5
20260510020008 54 308 5.0 10.0 0.00 0.09 0.09 63 1006.6
20260510014505 54 313 8.0 11.0 0.00 0.09 0.09 61 1006.3
20260510013008 55 309 8.0 15.0 0.00 0.09 0.09 62 1005.9
20260510011505 56 309 8.0 15.0 0.00 0.09 0.09 61 1005.6
20260510004505 58 309 9.0 17.0 0.00 0.09 0.09 56 1004.6
20260510003008 61 303 5.0 17.0 0.00 0.09 0.09 51 1004.1
20260510001505 62 273 4.0 10.0 0.00 0.09 0.09 49 1003.7
20260510000007 62 266 6.0 12.0 0.00 0.09 0.09 47 1003.2
20260509234505 63 257 7.0 15.0 0.00 0.09 0.09 44 1003.1
20260509231505 65 248 9.0 20.0 0.00 0.09 0.09 42 1002.7
20260509230008 65 244 11.0 17.0 0.00 0.09 0.09 43 1002.2
20260509224504 66 246 12.0 23.0 0.00 0.09 0.09 42 1002.0
20260509223008 66 248 11.0 23.0 0.00 0.09 0.09 43 1001.6
20260509221504 66 245 11.0 19.0 0.00 0.09 0.09 45 1001.3
20260509220008 66 237 10.0 17.0 0.00 0.09 0.09 47 1001.0
20260509213008 66 247 10.0 25.0 0.00 0.09 0.09 48 1000.8
20260509211505 67 237 10.0 16.0 0.00 0.09 0.09 50 1000.9
20260509210007 66 234 10.0 21.0 0.00 0.09 0.09 49 1000.7
20260509204505 66 229 10.0 19.0 0.00 0.09 0.09 49 1000.6
20260509203008 65 231 12.0 33.0 0.00 0.09 0.09 50 1000.7
20260509201505 65 230 10.0 23.0 0.00 0.09 0.09 50 1001.0
20260509200008 65 236 11.0 26.0 0.00 0.09 0.09 51 1001.1
20260509191505 65 256 7.0 15.0 0.02 0.09 0.09 64 1001.3
20260509190007 62 239 5.0 16.0 0.05 0.09 0.09 77 1001.4
20260509184505 58 222 6.0 16.0 0.05 0.09 0.09 80 1001.5
20260509183007 56 218 8.0 15.0 0.05 0.09 0.09 82 1001.1
20260509181505 59 241 9.0 26.0 0.03 0.07 0.07 72 1001.4
20260509174505 68 216 5.0 15.0 0.00 0.04 0.04 57 999.9
20260509173007 67 190 5.0 14.0 0.00 0.04 0.04 62 1000.2
20260509171505 66 171 6.0 14.0 0.00 0.04 0.04 63 1000.5
20260509164504 64 161 9.0 21.0 0.00 0.04 0.04 73 1000.6
20260509161505 60 157 7.0 15.0 0.00 0.04 0.04 78 1001.1
20260509160009 59 162 7.0 21.0 0.00 0.04 0.04 79 1001.3